Waarnemingen

Advertentie
Mijn weer
K14A, Nederland (6204): temperatuur & dauwpunt: 18.05.2017 04:00:00 - 24.05.2017 04:00:00 (CEST)K14A, Nederland (6204): windsnelheid & windstoten: 18.05.2017 04:00:00 - 24.05.2017 04:00:00 (CEST)K14A, Nederland (6204): windrichting: 18.05.2017 04:00:00 - 24.05.2017 04:00:00 (CEST)K14A, Nederland (6204): luchtdruk: 18.05.2017 04:00:00 - 24.05.2017 04:00:00 (CEST)K14A, Nederland (6204): zicht: 18.05.2017 04:00:00 - 24.05.2017 04:00:00 (CEST)
Datum & Tijd tt [°C] td [°C] ff [km/u] ff [kn] fx [km/u] fx [kn] dd ppp [hPa] vv [km]
24.05.2017 04:00:00 13,4 10,8 5 3 11 6 Z 1022,9 10
24.05.2017 03:00:00 13,2 9,7 9 5 14 8 Z 1022,7 10
24.05.2017 02:00:00 14,3 8,9 11 6 11 6 Z 1022,8 10
24.05.2017 01:00:00 12,9 9,1 11 6 11 6 Z 1022,9 10
24.05.2017 00:00:00 13,0 9,5 9 5 11 6 Z 1023,2 10
23.05.2017 23:00:00 13,4 7,2 8 4 7 4 ZZW 1023,2 10
23.05.2017 22:00:00 12,9 4,3 9 5 - - ZZW 1023,0 10
23.05.2017 21:00:00 12,0 10,3 15 8 18 10 ZW 1022,5 10
23.05.2017 20:00:00 14,2 8,7 11 6 14 8 WZW 1022,3 10
23.05.2017 19:00:00 12,4 9,5 8 4 22 12 - 1021,9 10
23.05.2017 18:00:00 12,1 9,2 15 8 22 12 NW 1021,8 10
23.05.2017 17:00:00 12,1 10,0 11 6 22 12 - 1021,5 17
23.05.2017 16:00:00 11,9 8,9 13 7 25 14 - 1021,5 10
23.05.2017 15:00:00 11,9 8,7 18 10 29 16 - 1021,2 10
23.05.2017 14:00:00 11,7 9,0 24 13 29 16 - 1020,3 10
23.05.2017 13:00:00 11,8 8,6 26 14 32 18 WNW 1019,7 10
23.05.2017 12:00:00 11,7 9,2 24 13 36 19 WNW 1018,9 10
23.05.2017 11:00:00 11,8 10,0 37 20 40 21 WNW 1018,3 10
23.05.2017 10:00:00 11,9 10,3 37 20 40 21 WNW 1017,4 10
23.05.2017 09:00:00 12,2 10,2 37 20 40 21 WNW 1016,4 10
23.05.2017 08:00:00 12,4 10,4 34 18 36 19 WNW 1015,6 10
23.05.2017 07:00:00 12,8 10,7 35 19 36 19 WNW 1014,8 10
23.05.2017 06:00:00 13,6 10,2 42 23 43 23 W 1014,4 10
23.05.2017 05:00:00 15,1 9,0 42 23 43 23 ZW 1013,7 10
23.05.2017 04:00:00 15,0 9,6 35 19 32 18 ZZW 1013,7 10
23.05.2017 03:00:00 17,4 8,1 28 15 25 14 Z 1014,0 10
23.05.2017 02:00:00 17,4 10,4 21 11 22 12 Z 1014,5 10
23.05.2017 01:00:00 17,3 10,5 21 11 18 10 Z 1014,6 10
23.05.2017 00:00:00 15,9 11,3 22 12 25 14 ZO 1014,8 10
22.05.2017 23:00:00 16,2 10,7 28 15 29 16 ZO 1015,1 10
22.05.2017 22:00:00 16,2 10,9 31 17 29 16 OZO 1015,3 10
22.05.2017 21:00:00 15,3 10,6 28 15 25 14 O 1015,6 10
22.05.2017 20:00:00 15,2 10,7 24 13 22 12 O 1015,9 10
22.05.2017 19:00:00 14,6 11,3 26 14 25 14 O 1016,1 10
22.05.2017 18:00:00 14,6 11,5 16 9 18 10 O 1017,2 10
22.05.2017 17:00:00 14,8 11,5 16 9 18 10 O 1017,6 10
22.05.2017 16:00:00 14,8 11,2 15 8 14 8 OZO 1018,0 10
22.05.2017 15:00:00 15,5 11,1 16 9 22 12 OZO 1018,8 10
22.05.2017 14:00:00 15,3 11,3 24 13 25 14 OZO 1019,0 10
22.05.2017 13:00:00 14,7 11,1 28 15 25 14 OZO 1019,3 10
22.05.2017 12:00:00 14,0 11,0 24 13 25 14 ZO 1019,7 10
22.05.2017 11:00:00 13,6 11,4 26 14 29 16 ZO 1020,1 10
22.05.2017 10:00:00 13,4 11,0 31 17 32 18 ZO 1020,3 10
22.05.2017 09:00:00 13,2 10,9 34 18 36 19 ZO 1020,5 10
22.05.2017 08:00:00 12,8 10,7 35 19 32 18 OZO 1020,5 10
22.05.2017 07:00:00 12,8 10,6 37 20 32 18 OZO 1020,8 10
22.05.2017 06:00:00 12,8 10,4 37 20 36 19 OZO 1021,2 10
22.05.2017 05:00:00 12,9 10,2 39 21 36 19 OZO 1021,5 10
22.05.2017 04:00:00 13,4 10,5 39 21 36 19 OZO 1022,0 10
22.05.2017 03:00:00 13,2 10,2 39 21 36 19 OZO 1022,6 10
22.05.2017 02:00:00 13,1 9,1 35 19 32 18 OZO 1023,3 10
22.05.2017 01:00:00 13,3 7,7 28 15 29 16 OZO 1023,5 10
22.05.2017 00:00:00 12,6 9,1 28 15 29 16 OZO 1023,9 10
21.05.2017 23:00:00 12,7 10,5 24 13 22 12 OZO 1024,2 10
21.05.2017 22:00:00 12,7 10,1 16 9 14 8 OZO 1024,2 10
21.05.2017 21:00:00 13,4 10,3 15 8 14 8 ZO 1024,5 10
21.05.2017 20:00:00 12,1 10,2 13 7 18 10 ZZO 1024,8 10
21.05.2017 19:00:00 12,1 10,7 16 9 18 10 ZZO 1025,1 10
21.05.2017 18:00:00 12,3 10,5 18 10 18 10 ZZO 1025,6 10
21.05.2017 17:00:00 12,5 10,3 18 10 18 10 Z 1026,2 10
21.05.2017 16:00:00 12,4 10,3 16 9 18 10 Z 1026,5 10
21.05.2017 15:00:00 12,0 10,2 18 10 18 10 ZZW 1026,7 9
21.05.2017 14:00:00 11,9 10,1 21 11 22 12 ZZW 1026,8 7
21.05.2017 13:00:00 11,6 10,1 22 12 25 14 ZZW 1026,9 10
21.05.2017 12:00:00 11,3 9,9 26 14 29 16 ZW 1026,9 8
21.05.2017 11:00:00 11,1 9,7 29 16 29 16 ZW 1026,3 10
21.05.2017 10:00:00 11,2 9,7 29 16 32 18 ZZW 1026,1 10
21.05.2017 09:00:00 11,1 9,7 31 17 32 18 ZZW 1025,4 10
21.05.2017 08:00:00 11,2 9,7 34 18 36 19 ZZW 1024,9 10
21.05.2017 07:00:00 11,3 9,6 34 18 36 19 ZZW 1024,4 10
21.05.2017 06:00:00 11,4 9,6 39 21 40 21 ZZW 1023,9 10
21.05.2017 05:00:00 11,5 9,4 44 24 43 23 ZZW 1023,6 10
21.05.2017 04:00:00 11,7 9,4 42 23 43 23 ZZW 1023,6 10
21.05.2017 03:00:00 11,7 9,7 44 24 43 23 ZZW 1023,5 10
21.05.2017 02:00:00 11,8 9,6 44 24 47 25 ZZW 1023,3 10
21.05.2017 01:00:00 12,0 9,1 46 25 47 25 ZZW 1023,0 10
21.05.2017 00:00:00 12,1 9,1 42 23 43 23 Z 1022,8 10
20.05.2017 23:00:00 12,3 9,0 39 21 40 21 Z 1022,4 10
20.05.2017 22:00:00 12,3 9,1 37 20 36 19 Z 1022,0 10
20.05.2017 21:00:00 12,7 9,0 41 22 40 21 Z 1021,5 10
20.05.2017 20:00:00 12,7 8,9 35 19 40 21 Z 1021,2 10
20.05.2017 19:00:00 12,7 9,5 41 22 40 21 Z 1021,0 10
20.05.2017 18:00:00 12,7 9,2 34 18 40 21 Z 1020,6 10
20.05.2017 17:00:00 12,4 8,7 37 20 36 19 Z 1020,3 10
20.05.2017 16:00:00 12,2 10,0 34 18 36 19 Z 1020,0 10
20.05.2017 15:00:00 12,1 9,8 37 20 36 19 Z 1019,5 10
20.05.2017 14:00:00 11,9 9,8 35 19 32 18 Z 1019,0 10
20.05.2017 13:00:00 11,6 10,0 29 16 32 18 ZZW 1018,5 10
20.05.2017 12:00:00 11,4 9,2 35 19 32 18 ZZW 1018,1 10
20.05.2017 11:00:00 11,5 9,9 34 18 32 18 ZZW 1017,2 10
20.05.2017 10:00:00 11,4 9,4 31 17 32 18 Z 1016,7 10
20.05.2017 09:00:00 11,5 9,8 28 15 29 16 Z 1016,0 10
20.05.2017 08:00:00 11,2 9,4 26 14 25 14 ZZW 1015,5 10
20.05.2017 07:00:00 11,2 9,4 26 14 25 14 Z 1014,8 10
20.05.2017 06:00:00 11,0 9,2 26 14 25 14 ZZW 1014,1 10
20.05.2017 05:00:00 10,7 9,2 21 11 22 12 ZZW 1014,0 10
20.05.2017 04:00:00 10,5 9,2 24 13 22 12 ZZW 1013,9 10
20.05.2017 03:00:00 10,3 9,0 21 11 25 14 ZW 1013,6 10
20.05.2017 02:00:00 10,3 9,1 24 13 25 14 ZZW 1013,6 10
20.05.2017 01:00:00 10,3 8,8 26 14 25 14 ZW 1013,4 10
20.05.2017 00:00:00 10,4 8,8 26 14 29 16 ZW 1013,3 10
19.05.2017 23:00:00 10,4 8,4 29 16 29 16 WZW 1013,0 10
19.05.2017 22:00:00 10,4 8,0 35 19 36 19 W 1012,5 10
19.05.2017 21:00:00 10,5 8,8 34 18 40 21 WZW 1012,3 10
19.05.2017 20:00:00 10,5 8,4 39 21 47 25 WZW 1011,6 10
19.05.2017 19:00:00 10,6 8,6 48 26 50 27 WZW 1010,7 10
19.05.2017 18:00:00 10,6 8,8 48 26 54 29 WZW 1010,1 10
19.05.2017 17:00:00 10,6 9,0 52 28 58 31 WZW 1009,6 10
19.05.2017 16:00:00 10,6 8,9 55 30 61 33 ZW 1009,0 10
19.05.2017 15:00:00 10,7 9,2 61 33 65 35 ZW 1007,6 10
19.05.2017 14:00:00 10,7 9,2 67 36 68 37 ZZW 1006,4 10
19.05.2017 13:00:00 10,7 9,5 67 36 72 39 ZZW 1005,7 10
19.05.2017 12:00:00 10,8 9,9 72 39 72 39 ZZW 1004,1 10
19.05.2017 11:00:00 11,2 11,2 44 24 54 29 Z 1002,6 1,7
19.05.2017 10:00:00 11,4 11,0 42 23 50 27 ZO 1002,4 0,9
19.05.2017 09:00:00 12,2 10,9 44 24 50 27 ZO 1002,8 10
19.05.2017 08:00:00 12,6 11,5 39 21 61 33 ZO 1003,2 7
19.05.2017 07:00:00 12,9 12,0 50 27 61 33 O 1003,4 8
19.05.2017 06:00:00 12,0 11,4 54 29 58 31 O 1003,9 10
19.05.2017 05:00:00 11,9 10,9 55 30 54 29 ONO 1004,5 8
19.05.2017 04:00:00 11,6 10,5 52 28 50 27 ONO 1005,9 10
19.05.2017 03:00:00 11,5 10,4 50 27 54 29 ONO 1006,8 10
19.05.2017 02:00:00 11,2 10,6 44 24 47 25 ONO 1007,8 10
19.05.2017 01:00:00 11,0 10,3 41 22 40 21 ONO 1009,4 10
19.05.2017 00:00:00 10,6 10,4 35 19 36 19 NO 1010,2 10
18.05.2017 23:00:00 10,2 10,1 34 18 32 18 NO 1011,2 9
18.05.2017 22:00:00 10,7 9,6 28 15 29 16 NO 1011,7 10
18.05.2017 21:00:00 12,3 10,0 24 13 25 14 ONO 1011,8 10
18.05.2017 20:00:00 13,0 10,2 18 10 18 10 ONO 1012,4 10
18.05.2017 19:00:00 11,7 10,2 15 8 14 8 NO 1013,0 10
18.05.2017 18:00:00 11,4 10,3 9 5 11 6 NO 1013,4 10
18.05.2017 17:00:00 11,6 10,3 4 2 7 4 - 1013,4 10
18.05.2017 16:00:00 13,0 10,6 2 1 7 4 - 1013,7 10
18.05.2017 15:00:00 13,0 10,6 9 5 11 6 - 1013,7 10
18.05.2017 14:00:00 13,1 10,7 13 7 25 14 ZW 1013,6 10
18.05.2017 13:00:00 12,4 11,0 18 10 22 12 WZW 1013,8 10
18.05.2017 12:00:00 12,4 10,5 16 9 18 10 W 1013,3 10
18.05.2017 11:00:00 12,8 10,5 13 7 18 10 - 1012,8 10
18.05.2017 10:00:00 10,7 10,3 8 4 22 12 WNW 1012,7 10
18.05.2017 09:00:00 10,5 10,3 16 9 25 14 - 1011,8 10
18.05.2017 08:00:00 10,6 10,5 22 12 29 16 WNW 1011,3 0,4
18.05.2017 07:00:00 10,7 10,5 18 10 29 16 WNW 1010,5 5
18.05.2017 06:00:00 10,9 10,8 11 6 36 19 - 1009,8 10
18.05.2017 05:00:00 10,9 10,7 34 18 32 18 W 1009,4 6
18.05.2017 04:00:00 11,2 11,2 21 11 25 14 N 1008,6 10

tt = temperatuur
td = dauwpunt
ff = windsnelheid
fx = windstoten
dd = windrichting
ppp = luchtdruk
vv = zicht

Weerstations in de omgeving